When you browse on this site, cookies collect data to enhance your experience and personalize the content and advertising you see.
Visit our Privacy Policy to learn more. By continuing to use the site, you agree to this use of cookies and data.
  • In Hungary
  • List of Countries
  • For 7 days
  • Water Temperature
  • Weather Map
  • News
  • Weather Widgets
  • user-avatar
    Login

    Hourly Weather Nausori

    Today, 12 December, Thursday

    Time Temperature Precipitation Wind Pressure Humidity
    00:00 +23°C° 0 mm 1 mps 746 mmHg 96%
    01:00 +22°C° 0 mm 1 mps 746 mmHg 96%
    02:00 +22°C° 0 mm 1 mps 745 mmHg 96%
    03:00 +22°C° 0 mm 1 mps 745 mmHg 96%
    04:00 +22°C° 0 mm 1 mps 745 mmHg 96%
    05:00 +22°C° 0 mm 1 mps 745 mmHg 96%
    06:00 +23°C° 0 mm 1 mps 746 mmHg 96%
    07:00 +25°C° 0 mm 1 mps 746 mmHg 88%
    08:00 +27°C° 0 mm 1 mps 746 mmHg 80%
    09:00 +29°C° 0 mm 1 mps 747 mmHg 72%
    10:00 +30°C° 0.1 mm 1 mps 747 mmHg 70%
    11:00 +30°C° 0.1 mm 2 mps 746 mmHg 68%
    12:00 +30°C° 0 mm 2 mps 746 mmHg 66%
    13:00 +30°C° 0.3 mm 2 mps 746 mmHg 71%
    14:00 +29°C° 0.3 mm 2 mps 745 mmHg 77%
    15:00 +28°C° 0.3 mm 2 mps 745 mmHg 83%
    16:00 +27°C° 0.3 mm 2 mps 745 mmHg 87%
    17:00 +26°C° 0.3 mm 2 mps 745 mmHg 90%
    18:00 +25°C° 0.3 mm 2 mps 745 mmHg 93%
    19:00 +25°C° 0.1 mm 2 mps 746 mmHg 94%
    20:00 +24°C° 0.1 mm 2 mps 746 mmHg 95%
    21:00 +24°C° 0.1 mm 2 mps 747 mmHg 95%
    22:00 +24°C° 0 mm 2 mps 747 mmHg 95%
    23:00 +24°C° 0 mm 2 mps 747 mmHg 95%

    Tomorrow, 13 December, Friday

    Time Temperature Precipitation Wind Pressure Humidity
    00:00 +24°C° 0 mm 2 mps 747 mmHg 95%
    01:00 +23°C° 0 mm 2 mps 746 mmHg 96%
    02:00 +23°C° 0 mm 2 mps 746 mmHg 96%
    03:00 +23°C° 0 mm 2 mps 745 mmHg 96%
    04:00 +23°C° 0.1 mm 2 mps 745 mmHg 96%
    05:00 +24°C° 0.1 mm 2 mps 746 mmHg 96%
    06:00 +24°C° 0.1 mm 2 mps 746 mmHg 96%
    07:00 +25°C° 0.2 mm 2 mps 746 mmHg 91%
    08:00 +27°C° 0.2 mm 2 mps 747 mmHg 86%
    09:00 +28°C° 0.2 mm 2 mps 747 mmHg 82%
    10:00 +28°C° 0.9 mm 2 mps 747 mmHg 83%
    11:00 +29°C° 0.9 mm 2 mps 746 mmHg 84%
    12:00 +29°C° 0.9 mm 2 mps 746 mmHg 85%
    13:00 +29°C° 1.2 mm 2 mps 746 mmHg 86%
    14:00 +29°C° 1.2 mm 2 mps 745 mmHg 87%
    15:00 +28°C° 1.2 mm 2 mps 745 mmHg 88%
    16:00 +28°C° 1 mm 2 mps 745 mmHg 90%
    17:00 +27°C° 1 mm 2 mps 745 mmHg 92%
    18:00 +27°C° 1 mm 2 mps 745 mmHg 94%
    19:00 +26°C° 0.3 mm 2 mps 746 mmHg 95%
    20:00 +25°C° 0.3 mm 2 mps 746 mmHg 96%
    21:00 +25°C° 0.3 mm 2 mps 747 mmHg 97%
    22:00 +24°C° 0.1 mm 2 mps 746 mmHg 97%
    23:00 +24°C° 0.1 mm 2 mps 746 mmHg 97%

    Day after tomorrow, 14 December, Saturday

    Time Temperature Precipitation Wind Pressure Humidity
    00:00 +24°C° 0.1 mm 2 mps 746 mmHg 97%
    01:00 +24°C° 0.2 mm 2 mps 746 mmHg 97%
    02:00 +24°C° 0.2 mm 2 mps 745 mmHg 97%
    03:00 +24°C° 0.2 mm 2 mps 745 mmHg 97%
    04:00 +24°C° 0.1 mm 2 mps 745 mmHg 97%
    05:00 +24°C° 0.1 mm 2 mps 745 mmHg 97%
    06:00 +25°C° 0.1 mm 2 mps 745 mmHg 97%
    07:00 +26°C° 0.5 mm 2 mps 746 mmHg 93%
    08:00 +27°C° 0.5 mm 2 mps 746 mmHg 90%
    09:00 +28°C° 0.5 mm 2 mps 746 mmHg 87%
    10:00 +29°C° 1.5 mm 2 mps 746 mmHg 87%
    11:00 +29°C° 1.5 mm 2 mps 746 mmHg 87%
    12:00 +29°C° 1.5 mm 2 mps 745 mmHg 87%
    13:00 +29°C° 2 mm 2 mps 745 mmHg 87%
    14:00 +29°C° 2 mm 2 mps 745 mmHg 87%
    15:00 +29°C° 2 mm 2 mps 744 mmHg 88%
    16:00 +28°C° 1.5 mm 2 mps 744 mmHg 89%
    17:00 +27°C° 1.5 mm 2 mps 744 mmHg 91%
    18:00 +27°C° 1.5 mm 2 mps 744 mmHg 93%
    19:00 +26°C° 0.4 mm 2 mps 745 mmHg 94%
    20:00 +26°C° 0.4 mm 2 mps 745 mmHg 95%
    21:00 +25°C° 0.4 mm 2 mps 746 mmHg 95%
    22:00 +25°C° 0.3 mm 1 mps 745 mmHg 95%
    23:00 +25°C° 0.3 mm 1 mps 745 mmHg 95%

    15 December, Sunday

    Time Temperature Precipitation Wind Pressure Humidity
    00:00 +25°C° 0.3 mm 1 mps 745 mmHg 95%
    01:00 +25°C° 0 mm 1 mps 745 mmHg 95%
    02:00 +25°C° 0 mm 1 mps 744 mmHg 95%
    03:00 +25°C° 0 mm 1 mps 744 mmHg 95%
    04:00 +25°C° 0 mm 1 mps 744 mmHg 95%
    05:00 +25°C° 0 mm 1 mps 744 mmHg 95%
    06:00 +25°C° 0 mm 1 mps 744 mmHg 95%
    07:00 +26°C° 0 mm 1 mps 745 mmHg 91%
    08:00 +27°C° 0 mm 1 mps 745 mmHg 87%
    09:00 +28°C° 0 mm 1 mps 745 mmHg 83%
    10:00 +29°C° 0.3 mm 2 mps 745 mmHg 82%
    11:00 +29°C° 0.3 mm 2 mps 745 mmHg 81%
    12:00 +29°C° 0.3 mm 2 mps 745 mmHg 80%
    13:00 +29°C° 0.2 mm 2 mps 744 mmHg 81%
    14:00 +29°C° 0.2 mm 2 mps 744 mmHg 82%
    15:00 +29°C° 0.2 mm 2 mps 743 mmHg 83%
    16:00 +28°C° 0.3 mm 2 mps 744 mmHg 86%
    17:00 +28°C° 0.3 mm 2 mps 744 mmHg 89%
    18:00 +27°C° 0.3 mm 2 mps 744 mmHg 92%
    19:00 +26°C° 0.2 mm 2 mps 744 mmHg 94%
    20:00 +26°C° 0.2 mm 2 mps 745 mmHg 95%
    21:00 +25°C° 0.2 mm 2 mps 745 mmHg 96%
    22:00 +25°C° 0.1 mm 2 mps 745 mmHg 96%
    23:00 +25°C° 0.1 mm 2 mps 745 mmHg 97%

    16 December, Monday

    Time Temperature Precipitation Wind Pressure Humidity
    00:00 +25°C° 0.1 mm 2 mps 744 mmHg 97%
    01:00 +25°C° 0.1 mm 2 mps 744 mmHg 97%
    02:00 +25°C° 0.1 mm 2 mps 743 mmHg 97%
    03:00 +25°C° 0.1 mm 2 mps 743 mmHg 96%
    04:00 +25°C° 0.1 mm 2 mps 743 mmHg 96%
    05:00 +25°C° 0.1 mm 2 mps 743 mmHg 96%
    06:00 +25°C° 0.1 mm 2 mps 743 mmHg 96%
    07:00 +26°C° 0.3 mm 2 mps 744 mmHg 91%
    08:00 +28°C° 0.3 mm 2 mps 744 mmHg 86%
    09:00 +29°C° 0.3 mm 2 mps 744 mmHg 81%
    10:00 +30°C° 1.3 mm 2 mps 744 mmHg 81%
    11:00 +30°C° 1.3 mm 2 mps 744 mmHg 80%
    12:00 +31°C° 1.3 mm 2 mps 744 mmHg 79%
    13:00 +30°C° 2.2 mm 2 mps 743 mmHg 81%
    14:00 +30°C° 2.2 mm 2 mps 743 mmHg 82%
    15:00 +29°C° 2.2 mm 2 mps 742 mmHg 83%
    16:00 +28°C° 2.9 mm 2 mps 743 mmHg 88%
    17:00 +27°C° 2.9 mm 2 mps 743 mmHg 92%
    18:00 +26°C° 2.9 mm 2 mps 743 mmHg 97%
    19:00 +26°C° 2 mm 2 mps 743 mmHg 97%
    20:00 +26°C° 2 mm 2 mps 744 mmHg 97%
    21:00 +25°C° 2 mm 2 mps 744 mmHg 97%
    22:00 +25°C° 0.1 mm 2 mps 744 mmHg 97%
    23:00 +25°C° 0.1 mm 2 mps 744 mmHg 97%

    17 December, Tuesday

    Time Temperature Precipitation Wind Pressure Humidity
    00:00 +25°C° 0.1 mm 2 mps 744 mmHg 97%
    01:00 +25°C° 0.4 mm 2 mps 743 mmHg 97%
    02:00 +25°C° 0.4 mm 2 mps 743 mmHg 97%
    03:00 +26°C° 0.4 mm 1 mps 742 mmHg 97%
    04:00 +26°C° 0.2 mm 1 mps 743 mmHg 97%
    05:00 +26°C° 0.2 mm 1 mps 743 mmHg 97%
    06:00 +26°C° 0.2 mm 1 mps 743 mmHg 97%
    07:00 +27°C° 0.2 mm 1 mps 743 mmHg 92%
    08:00 +29°C° 0.2 mm 1 mps 744 mmHg 87%
    09:00 +30°C° 0.2 mm 1 mps 744 mmHg 81%
    10:00 +30°C° 1.1 mm 1 mps 744 mmHg 82%
    11:00 +30°C° 1.1 mm 1 mps 744 mmHg 84%
    12:00 +30°C° 1.1 mm 1 mps 743 mmHg 85%
    13:00 +30°C° 1.6 mm 1 mps 743 mmHg 86%
    14:00 +30°C° 1.6 mm 1 mps 743 mmHg 87%
    15:00 +30°C° 1.6 mm 1 mps 742 mmHg 89%
    16:00 +29°C° 1.2 mm 1 mps 742 mmHg 90%
    17:00 +28°C° 1.2 mm 1 mps 743 mmHg 92%
    18:00 +28°C° 1.2 mm 1 mps 743 mmHg 94%
    19:00 +27°C° 0 mm 1 mps 743 mmHg 95%
    20:00 +27°C° 0 mm 1 mps 744 mmHg 95%
    21:00 +26°C° 0 mm 1 mps 744 mmHg 96%
    22:00 +26°C° 0 mm 1 mps 744 mmHg 96%
    23:00 +26°C° 0 mm 1 mps 744 mmHg 97%
    Show more